ACA112 EDDP-EGKK

Flight info

Callsign ACA112
Flight time 1h 21m
Altitude 38000
Route PENEM1E PENEM Y233 EMBOX L986 POVEL DCT GALSO Q63 ARREK Y4 TEBRA
Aircraft B77W/H-SDE1E2E3FGHIJ2J3J4J5M1RWXY/LB1D1

Departure

Time 2026-05-07 23:12
Airport Leipzig/Halle Airport (EDDP)

Arrival

Time 2026-05-08 00:34
Airport London Gatwick Airport (EGKK)
Time Latitude Longitude Altitude Speed Heading
2026-05-07 22:41 51.41878 12.22103 450 ft 0 kts 15°
2026-05-07 23:02 51.41854 12.22093 450 ft 4 kts 15°
2026-05-07 23:03 51.41832 12.22083 449 ft 4 kts 20°
2026-05-07 23:03 51.41812 12.22067 448 ft 4 kts 51°
2026-05-07 23:03 51.41804 12.22042 448 ft 5 kts 93°
2026-05-07 23:03 51.41810 12.22003 447 ft 4 kts 109°
2026-05-07 23:04 51.41815 12.21975 448 ft 1 kts 105°
2026-05-07 23:04 51.41816 12.21970 450 ft 5 kts 105°
2026-05-07 23:06 51.41811 12.21998 450 ft 6 kts 105°
2026-05-07 23:07 51.41792 12.22113 453 ft 15 kts 105°
2026-05-07 23:07 51.41761 12.22291 457 ft 17 kts 105°
2026-05-07 23:07 51.41730 12.22470 462 ft 17 kts 105°
2026-05-07 23:07 51.41700 12.22647 466 ft 17 kts 105°
2026-05-07 23:08 51.41669 12.22829 469 ft 19 kts 105°
2026-05-07 23:08 51.41626 12.23076 469 ft 26 kts 105°
2026-05-07 23:08 51.41600 12.23356 468 ft 26 kts 85°
2026-05-07 23:08 51.41615 12.23640 471 ft 26 kts 86°
2026-05-07 23:09 51.41627 12.23921 474 ft 26 kts 86°
2026-05-07 23:09 51.41640 12.24204 477 ft 26 kts 86°
2026-05-07 23:09 51.41652 12.24489 473 ft 26 kts 85°
2026-05-07 23:09 51.41644 12.24735 471 ft 20 kts 130°
2026-05-07 23:10 51.41555 12.24735 471 ft 14 kts 196°
2026-05-07 23:10 51.41454 12.24692 471 ft 16 kts 194°
2026-05-07 23:10 51.41370 12.24639 471 ft 9 kts 231°
2026-05-07 23:10 51.41353 12.24531 475 ft 11 kts 265°
2026-05-07 23:11 51.41352 12.24501 474 ft 2 kts 265°
2026-05-07 23:11 51.41351 12.24485 472 ft 1 kts 265°
2026-05-07 23:11 51.41343 12.24311 476 ft 57 kts 266°
2026-05-07 23:12 51.41289 12.23090 469 ft 161 kts 266°
2026-05-07 23:12 51.41228 12.20981 944 ft 203 kts 268°
2026-05-07 23:12 51.41145 12.18657 1982 ft 214 kts 267°
2026-05-07 23:12 51.41041 12.16260 3062 ft 216 kts 266°
2026-05-07 23:13 51.40918 12.13817 3896 ft 224 kts 266°
2026-05-07 23:13 51.41011 12.11312 4668 ft 230 kts 291°
2026-05-07 23:13 51.41979 12.09367 5497 ft 229 kts 326°
2026-05-07 23:13 51.43407 12.08200 6378 ft 233 kts 347°
2026-05-07 23:14 51.45055 12.07994 7053 ft 243 kts
2026-05-07 23:14 51.46781 12.08079 7891 ft 250 kts
2026-05-07 23:14 51.48534 12.08149 8687 ft 253 kts
2026-05-07 23:14 51.50283 12.08186 9027 ft 257 kts
2026-05-07 23:15 51.52095 12.08203 8993 ft 260 kts
2026-05-07 23:15 51.53895 12.08224 8989 ft 258 kts
2026-05-07 23:15 51.55714 12.08285 9261 ft 266 kts
2026-05-07 23:15 51.57609 12.08355 10098 ft 276 kts
2026-05-07 23:16 51.59578 12.08425 10779 ft 293 kts
2026-05-07 23:16 51.61731 12.08500 11052 ft 325 kts
2026-05-07 23:16 51.64108 12.08579 11311 ft 357 kts
2026-05-07 23:16 51.66648 12.08662 12076 ft 371 kts
2026-05-07 23:17 51.69202 12.08511 12929 ft 376 kts 349°
2026-05-07 23:17 51.71675 12.06943 13906 ft 387 kts 328°
2026-05-07 23:17 51.73720 12.04117 14945 ft 388 kts 313°
2026-05-07 23:17 51.75540 12.00841 15906 ft 394 kts 311°
2026-05-07 23:18 51.77337 11.97544 16958 ft 398 kts 311°
2026-05-07 23:18 51.79190 11.94168 18049 ft 402 kts 311°
2026-05-07 23:18 51.81074 11.90787 18997 ft 407 kts 311°
2026-05-07 23:18 51.82991 11.87373 19862 ft 412 kts 311°
2026-05-07 23:19 51.84897 11.83925 20704 ft 417 kts 309°
2026-05-07 23:19 51.86649 11.80153 21528 ft 422 kts 304°
2026-05-07 23:19 51.88325 11.76197 22349 ft 428 kts 304°
2026-05-07 23:19 51.90019 11.72156 23174 ft 433 kts 304°
2026-05-07 23:20 51.91703 11.68143 23907 ft 438 kts 304°
2026-05-07 23:20 51.93439 11.64029 24588 ft 443 kts 304°
2026-05-07 23:20 51.95193 11.59885 25289 ft 446 kts 304°
2026-05-07 23:20 51.96938 11.55767 25962 ft 449 kts 304°
2026-05-07 23:21 51.98726 11.51545 26610 ft 453 kts 304°
2026-05-07 23:21 52.00521 11.47301 27245 ft 457 kts 304°
2026-05-07 23:21 52.02323 11.43033 27845 ft 460 kts 304°
2026-05-07 23:21 52.04044 11.38622 28411 ft 464 kts 298°
2026-05-07 23:22 52.05426 11.33938 28944 ft 468 kts 292°
2026-05-07 23:22 52.06554 11.28941 29477 ft 471 kts 287°
2026-05-07 23:22 52.07356 11.23748 29950 ft 474 kts 283°
2026-05-07 23:22 52.08043 11.18531 30406 ft 476 kts 282°
2026-05-07 23:23 52.08721 11.13263 30912 ft 476 kts 282°
2026-05-07 23:23 52.09409 11.07989 31478 ft 474 kts 282°
2026-05-07 23:23 52.10108 11.02757 32053 ft 472 kts 282°
2026-05-07 23:23 52.10813 10.97554 32608 ft 470 kts 283°
2026-05-07 23:24 52.11520 10.92345 33149 ft 469 kts 283°
2026-05-07 23:24 52.12194 10.87211 33632 ft 469 kts 281°
2026-05-07 23:24 52.12633 10.81932 34126 ft 468 kts 275°
2026-05-07 23:24 52.12764 10.76641 34532 ft 468 kts 269°
2026-05-07 23:25 52.12662 10.71345 34874 ft 469 kts 268°
2026-05-07 23:25 52.12532 10.66031 35210 ft 470 kts 268°
2026-05-07 23:25 52.12398 10.60774 35563 ft 470 kts 268°
2026-05-07 23:25 52.12265 10.55442 35919 ft 470 kts 268°
2026-05-07 23:26 52.12137 10.50127 36271 ft 470 kts 268°
2026-05-07 23:26 52.12013 10.44798 36605 ft 470 kts 268°
2026-05-07 23:26 52.11892 10.39524 36944 ft 470 kts 268°
2026-05-07 23:26 52.11770 10.34192 37268 ft 471 kts 268°
2026-05-07 23:27 52.11521 10.23519 37912 ft 471 kts 268°
2026-05-07 23:27 52.11395 10.18235 38077 ft 475 kts 267°
2026-05-07 23:27 52.11262 10.12822 38127 ft 477 kts 267°
2026-05-07 23:28 52.10991 10.02063 38128 ft 472 kts 267°
2026-05-07 23:28 52.10713 9.91412 38131 ft 469 kts 267°
2026-05-07 23:29 52.10428 9.80899 38141 ft 468 kts 267°
2026-05-07 23:29 52.10131 9.70296 38135 ft 468 kts 267°
2026-05-07 23:30 52.09826 9.59694 38137 ft 469 kts 267°
2026-05-07 23:30 52.09512 9.49140 38138 ft 469 kts 267°
2026-05-07 23:31 52.09187 9.38557 38134 ft 470 kts 266°
2026-05-07 23:31 52.08852 9.27923 38133 ft 470 kts 266°
2026-05-07 23:32 52.08506 9.17276 38133 ft 471 kts 266°
2026-05-07 23:32 52.08153 9.06685 38133 ft 471 kts 266°
2026-05-07 23:33 52.07788 8.96043 38132 ft 470 kts 266°
2026-05-07 23:33 52.07416 8.85470 38135 ft 470 kts 266°
2026-05-07 23:34 52.07033 8.74854 38134 ft 469 kts 266°
2026-05-07 23:34 52.06644 8.64324 38134 ft 469 kts 266°
2026-05-07 23:35 52.06243 8.53736 38134 ft 468 kts 266°
2026-05-07 23:35 52.05833 8.43161 38132 ft 468 kts 266°
2026-05-07 23:36 52.05415 8.32643 38136 ft 468 kts 266°
2026-05-07 23:36 52.04988 8.22116 38133 ft 468 kts 265°
2026-05-07 23:37 52.04550 8.11538 38136 ft 468 kts 265°
2026-05-07 23:37 52.04105 8.01043 38131 ft 467 kts 265°
2026-05-07 23:38 52.03647 7.90468 38131 ft 467 kts 265°
2026-05-07 23:38 52.03184 7.79977 38131 ft 467 kts 265°
2026-05-07 23:39 52.02708 7.69429 38132 ft 467 kts 265°
2026-05-07 23:39 52.02227 7.58959 38130 ft 467 kts 265°
2026-05-07 23:40 52.01733 7.48428 38129 ft 467 kts 265°
2026-05-07 23:40 52.01229 7.37887 38129 ft 467 kts 265°
2026-05-07 23:41 52.00720 7.27412 38127 ft 467 kts 265°
2026-05-07 23:41 52.00201 7.16949 38126 ft 467 kts 265°
2026-05-07 23:42 51.99669 7.06418 38126 ft 467 kts 265°
2026-05-07 23:42 51.99132 6.95968 38120 ft 467 kts 265°
2026-05-07 23:43 51.98582 6.85446 38117 ft 466 kts 264°
2026-05-07 23:43 51.98027 6.75008 38118 ft 466 kts 264°
2026-05-07 23:44 51.97460 6.64517 38118 ft 466 kts 264°
2026-05-07 23:44 51.96883 6.54030 38116 ft 466 kts 264°
2026-05-07 23:45 51.96302 6.43622 38111 ft 466 kts 264°
2026-05-07 23:45 51.95707 6.33149 38111 ft 466 kts 264°
2026-05-07 23:46 51.95103 6.22685 38111 ft 466 kts 264°
2026-05-07 23:46 51.94491 6.12222 38108 ft 465 kts 264°
2026-05-07 23:47 51.93873 6.01839 38098 ft 465 kts 264°
2026-05-07 23:47 51.93242 5.91388 38101 ft 465 kts 264°
2026-05-07 23:48 51.92603 5.80962 38112 ft 465 kts 264°
2026-05-07 23:48 51.91958 5.70595 38105 ft 465 kts 264°
2026-05-07 23:49 51.91298 5.60126 38105 ft 464 kts 263°
2026-05-07 23:49 51.90636 5.49783 38103 ft 464 kts 263°
2026-05-07 23:50 51.89959 5.39343 38103 ft 464 kts 263°
2026-05-07 23:50 51.89278 5.29003 38104 ft 464 kts 263°
2026-05-07 23:51 51.88584 5.18590 38102 ft 464 kts 263°
2026-05-07 23:51 51.87883 5.08223 38104 ft 464 kts 263°
2026-05-07 23:52 51.87292 4.99572 38101 ft 464 kts 263°
2026-05-07 23:52 51.86453 4.87469 38106 ft 464 kts 263°
2026-05-07 23:53 51.85724 4.77102 38106 ft 464 kts 263°
2026-05-07 23:53 51.85109 4.68456 38104 ft 465 kts 263°
2026-05-07 23:54 51.84362 4.58067 38105 ft 465 kts 263°
2026-05-07 23:54 51.83604 4.47667 38104 ft 465 kts 263°
2026-05-07 23:55 51.82838 4.37279 38103 ft 465 kts 262°
2026-05-07 23:55 51.82068 4.26961 38102 ft 465 kts 262°
2026-05-07 23:56 51.81283 4.16578 38104 ft 465 kts 262°
2026-05-07 23:56 51.80493 4.06241 38102 ft 464 kts 262°
2026-05-07 23:57 51.79690 3.95861 38101 ft 464 kts 262°
2026-05-07 23:57 51.78884 3.85564 38099 ft 464 kts 262°
2026-05-07 23:58 51.78063 3.75197 38103 ft 463 kts 262°
2026-05-07 23:58 51.77240 3.64921 38102 ft 463 kts 262°
2026-05-07 23:59 51.76404 3.54590 38096 ft 463 kts 262°
2026-05-07 23:59 51.75559 3.44272 38098 ft 463 kts 262°
2026-05-08 00:00 51.74709 3.34006 38100 ft 463 kts 262°
2026-05-08 00:00 51.73848 3.23693 38101 ft 463 kts 262°
2026-05-08 00:01 51.72980 3.13430 38102 ft 463 kts 261°
2026-05-08 00:01 51.72094 3.03114 38100 ft 464 kts 261°
2026-05-08 00:02 51.71645 2.97929 37742 ft 468 kts 261°
2026-05-08 00:02 51.71192 2.92721 37147 ft 469 kts 261°
2026-05-08 00:02 51.70744 2.87580 36449 ft 465 kts 261°
2026-05-08 00:02 51.70292 2.82419 35704 ft 463 kts 261°
2026-05-08 00:03 51.69839 2.77278 34885 ft 462 kts 261°
2026-05-08 00:03 51.69391 2.72207 34041 ft 462 kts 261°
2026-05-08 00:03 51.68934 2.67079 33033 ft 462 kts 261°
2026-05-08 00:03 51.68475 2.61951 32100 ft 461 kts 261°
2026-05-08 00:04 51.68016 2.56830 31145 ft 460 kts 261°
2026-05-08 00:04 51.67556 2.51726 30340 ft 458 kts 261°
2026-05-08 00:04 51.67103 2.46747 29599 ft 452 kts 261°
2026-05-08 00:04 51.66638 2.41753 28921 ft 445 kts 261°
2026-05-08 00:05 51.66177 2.36860 28282 ft 439 kts 261°
2026-05-08 00:05 51.65719 2.32016 27650 ft 433 kts 261°
2026-05-08 00:05 51.65274 2.27315 27019 ft 428 kts 261°
2026-05-08 00:05 51.64826 2.22596 26424 ft 423 kts 261°
2026-05-08 00:06 51.64382 2.17924 25808 ft 419 kts 261°
2026-05-08 00:06 51.63940 2.13294 25205 ft 415 kts 260°
2026-05-08 00:06 51.63505 2.08715 24620 ft 412 kts 261°
2026-05-08 00:06 51.63094 2.04156 24038 ft 409 kts 261°
2026-05-08 00:07 51.62694 1.99683 23424 ft 407 kts 261°
2026-05-08 00:07 51.62288 1.95183 22766 ft 404 kts 261°
2026-05-08 00:07 51.61876 1.90723 22178 ft 399 kts 261°
2026-05-08 00:07 51.61266 1.86416 21597 ft 392 kts 250°
2026-05-08 00:08 51.60150 1.82446 21054 ft 388 kts 241°
2026-05-08 00:08 51.58697 1.78870 20492 ft 384 kts 231°
2026-05-08 00:08 51.56943 1.75645 19949 ft 380 kts 228°
2026-05-08 00:08 51.55159 1.72493 19403 ft 381 kts 228°
2026-05-08 00:09 51.53371 1.69304 18868 ft 387 kts 228°
2026-05-08 00:09 51.51585 1.66082 18306 ft 392 kts 229°
2026-05-08 00:09 51.49782 1.62800 17651 ft 388 kts 230°
2026-05-08 00:09 51.48313 1.59221 17058 ft 380 kts 246°
2026-05-08 00:10 51.47459 1.55266 16546 ft 371 kts 251°
2026-05-08 00:10 51.46627 1.51365 15999 ft 368 kts 250°
2026-05-08 00:10 51.45770 1.47561 15464 ft 365 kts 249°
2026-05-08 00:10 51.44888 1.43738 14943 ft 363 kts 249°
2026-05-08 00:11 51.43999 1.39975 14408 ft 355 kts 245°
2026-05-08 00:11 51.42673 1.36694 14039 ft 347 kts 226°
2026-05-08 00:11 51.40856 1.34213 13877 ft 352 kts 217°
2026-05-08 00:11 51.38835 1.31835 13663 ft 365 kts 216°
2026-05-08 00:12 51.36765 1.29442 13447 ft 367 kts 216°
2026-05-08 00:12 51.34684 1.27035 13257 ft 367 kts 216°
2026-05-08 00:12 51.32617 1.24631 13050 ft 366 kts 216°
2026-05-08 00:12 51.30602 1.22275 12894 ft 360 kts 216°
2026-05-08 00:13 51.28609 1.19938 12708 ft 350 kts 217°
2026-05-08 00:13 51.26680 1.17672 12531 ft 337 kts 217°
2026-05-08 00:13 51.24813 1.15478 12310 ft 327 kts 217°
2026-05-08 00:13 51.23011 1.13362 11992 ft 321 kts 217°
2026-05-08 00:14 51.21214 1.11253 11607 ft 318 kts 217°
2026-05-08 00:14 51.19430 1.09161 11158 ft 317 kts 217°
2026-05-08 00:14 51.17670 1.07096 10727 ft 317 kts 217°
2026-05-08 00:14 51.15894 1.05015 10318 ft 315 kts 217°
2026-05-08 00:15 51.14124 1.02943 9889 ft 314 kts 217°
2026-05-08 00:15 51.12364 1.00885 9451 ft 312 kts 217°
2026-05-08 00:15 51.10633 0.98864 9029 ft 310 kts 217°
2026-05-08 00:15 51.08891 0.96832 8620 ft 309 kts 217°
2026-05-08 00:16 51.07169 0.94815 8248 ft 302 kts 219°
2026-05-08 00:16 51.05809 0.92400 8123 ft 287 kts 239°
2026-05-08 00:16 51.05071 0.89563 8032 ft 276 kts 254°
2026-05-08 00:16 51.04586 0.86664 7911 ft 266 kts 256°
2026-05-08 00:17 51.04135 0.83837 7688 ft 261 kts 256°
2026-05-08 00:17 51.03696 0.81077 7423 ft 259 kts 256°
2026-05-08 00:17 51.03251 0.78302 7124 ft 258 kts 256°
2026-05-08 00:17 51.02811 0.75584 7057 ft 250 kts 256°
2026-05-08 00:18 51.02373 0.72893 7011 ft 253 kts 256°
2026-05-08 00:18 51.01930 0.70186 7014 ft 257 kts 256°
2026-05-08 00:18 51.01627 0.67407 6870 ft 256 kts 268°
2026-05-08 00:18 51.01616 0.64603 6716 ft 251 kts 271°
2026-05-08 00:19 51.01659 0.61874 6456 ft 243 kts 272°
2026-05-08 00:19 51.01699 0.59218 6253 ft 238 kts 272°
2026-05-08 00:19 51.01729 0.56598 5965 ft 236 kts 271°
2026-05-08 00:19 51.01751 0.54017 5662 ft 236 kts 271°
2026-05-08 00:20 51.01766 0.51401 5344 ft 237 kts 270°
2026-05-08 00:20 51.01775 0.48821 5246 ft 228 kts 270°
2026-05-08 00:20 51.01780 0.46296 5248 ft 231 kts 270°
2026-05-08 00:20 51.01783 0.43682 5270 ft 240 kts 270°
2026-05-08 00:21 51.01783 0.41060 5274 ft 241 kts 270°
2026-05-08 00:21 51.01783 0.38690 5272 ft 240 kts 270°
2026-05-08 00:21 51.01782 0.38262 5272 ft 240 kts 270°
2026-05-08 00:21 51.01780 0.35612 5270 ft 238 kts 270°
2026-05-08 00:22 51.01776 0.32978 5208 ft 241 kts 269°
2026-05-08 00:22 51.01771 0.30321 5033 ft 244 kts 269°
2026-05-08 00:22 51.01766 0.27628 4868 ft 242 kts 269°
2026-05-08 00:22 51.01759 0.24964 4699 ft 237 kts 269°
2026-05-08 00:23 51.01754 0.22371 4563 ft 229 kts 269°
2026-05-08 00:23 51.01747 0.19921 4415 ft 221 kts 269°
2026-05-08 00:23 51.01740 0.17514 4249 ft 215 kts 269°
2026-05-08 00:23 51.01732 0.15137 4107 ft 215 kts 269°
2026-05-08 00:24 51.01725 0.12754 4093 ft 214 kts 269°
2026-05-08 00:24 51.01719 0.10398 4044 ft 213 kts 269°
2026-05-08 00:24 51.01715 0.08073 4008 ft 213 kts 269°
2026-05-08 00:24 51.01711 0.05704 4005 ft 214 kts 269°
2026-05-08 00:25 51.01708 0.03331 4012 ft 215 kts 269°
2026-05-08 00:25 51.01705 0.00948 4009 ft 216 kts 269°
2026-05-08 00:25 51.01703 -0.01448 4004 ft 217 kts 269°
2026-05-08 00:25 51.01700 -0.03826 3998 ft 217 kts 269°
2026-05-08 00:26 51.01697 -0.06228 3998 ft 217 kts 269°
2026-05-08 00:26 51.01693 -0.08618 3992 ft 213 kts 269°
2026-05-08 00:26 51.01749 -0.10873 3982 ft 201 kts 274°
2026-05-08 00:26 51.01914 -0.13118 3530 ft 212 kts 275°
2026-05-08 00:27 51.02103 -0.15488 3138 ft 215 kts 276°
2026-05-08 00:27 51.02291 -0.17786 3033 ft 203 kts 276°
2026-05-08 00:27 51.02473 -0.19922 2995 ft 195 kts 276°
2026-05-08 00:27 51.02657 -0.22088 3010 ft 198 kts 276°
2026-05-08 00:28 51.02841 -0.24246 2996 ft 195 kts 276°
2026-05-08 00:28 51.03023 -0.26376 2991 ft 193 kts 276°
2026-05-08 00:28 51.03203 -0.28491 2990 ft 193 kts 276°
2026-05-08 00:28 51.03381 -0.30587 3001 ft 193 kts 276°
2026-05-08 00:29 51.03620 -0.32688 2981 ft 192 kts 291°
2026-05-08 00:29 51.04448 -0.34249 3006 ft 184 kts 330°
2026-05-08 00:29 51.05623 -0.35010 3009 ft 183 kts 343°
2026-05-08 00:29 51.06856 -0.35606 2927 ft 187 kts 345°
2026-05-08 00:30 51.08074 -0.36189 2719 ft 180 kts 345°
2026-05-08 00:30 51.09251 -0.36753 2509 ft 174 kts 345°
2026-05-08 00:30 51.10391 -0.37287 2315 ft 171 kts 349°
2026-05-08 00:30 51.11530 -0.37075 2136 ft 165 kts 36°
2026-05-08 00:31 51.12202 -0.35674 2115 ft 160 kts 71°
2026-05-08 00:31 51.12596 -0.33977 1935 ft 164 kts 75°
2026-05-08 00:31 51.12944 -0.32321 1723 ft 153 kts 76°
2026-05-08 00:31 51.13199 -0.30722 1512 ft 147 kts 80°
2026-05-08 00:32 51.13421 -0.29125 1323 ft 147 kts 80°
2026-05-08 00:32 51.13639 -0.27540 1112 ft 146 kts 79°
2026-05-08 00:32 51.13858 -0.25947 905 ft 147 kts 78°
2026-05-08 00:32 51.14078 -0.24363 699 ft 148 kts 78°
2026-05-08 00:33 51.14299 -0.22756 504 ft 148 kts 78°
2026-05-08 00:33 51.14521 -0.21149 308 ft 149 kts 78°
2026-05-08 00:33 51.14737 -0.19571 219 ft 138 kts 78°
2026-05-08 00:33 51.14916 -0.18278 215 ft 88 kts 77°
2026-05-08 00:34 51.15006 -0.17612 217 ft 33 kts 78°
2026-05-08 00:34 51.15041 -0.17426 222 ft 16 kts 67°
2026-05-08 00:34 51.15099 -0.17260 222 ft 18 kts 53°
2026-05-08 00:34 51.15166 -0.17235 218 ft 11 kts 332°
2026-05-08 00:35 51.15233 -0.17306 220 ft 12 kts 323°
2026-05-08 00:35 51.15310 -0.17358 221 ft 12 kts 343°
2026-05-08 00:35 51.15382 -0.17384 215 ft 11 kts 348°
2026-05-08 00:35 51.15459 -0.17411 212 ft 12 kts 347°
2026-05-08 00:36 51.15536 -0.17442 215 ft 10 kts 334°
2026-05-08 00:36 51.15541 -0.17515 216 ft 8 kts 255°
2026-05-08 00:36 51.15532 -0.17578 219 ft 1 kts 256°
2026-05-08 00:36 51.15528 -0.17602 218 ft 3 kts 256°
2026-05-08 00:37 51.15522 -0.17641 215 ft 4 kts 256°
2026-05-08 00:37 51.15514 -0.17695 218 ft 6 kts 256°
2026-05-08 00:37 51.15508 -0.17762 215 ft 7 kts 272°
2026-05-08 00:38 51.15545 -0.17812 217 ft 2 kts 343°
2026-05-08 00:38 51.15550 -0.17814 217 ft 0 kts 343°